This is the latest recevied weather packets stored in our database for station/object KGRR-WX. If no packets are shown the sender has not sent any weather packets the latest 10 day(s).
| Time | Temp. | Humidity | Pressure | Rain* | Wind** | Luminosity | Snow |
|---|---|---|---|---|---|---|---|
| 1778033707 | 7.22° C | 49% | 981.8 hPa | 0 mm | - | - | - |
| 1778032818 | 7.78° C | 49% | 981.8 hPa | 0 mm | - | - | - |
| 1778031907 | 7.78° C | 42% | 981.6 hPa | 0 mm | - | - | - |
| 1778031022 | 8.33° C | 42% | 981.6 hPa | 0 mm | - | - | - |
| 1778030107 | 8.33° C | 42% | 981.6 hPa | 0 mm | - | - | - |
| 1778029224 | 8.89° C | 42% | 981.6 hPa | 0 mm | - | - | - |
| 1778028306 | 9.44° C | 36% | 981.6 hPa | 0 mm | - | - | - |
| 1778027413 | 10° C | 36% | 981.7 hPa | 0 mm | - | - | - |
| 1778026506 | 10° C | 36% | 981.7 hPa | 0 mm | - | - | - |
| 1778025625 | 10.56° C | 36% | 981.7 hPa | 0 mm | - | - | - |
| 1778024706 | 10.56° C | 34% | 981.6 hPa | 0 mm | - | - | - |
| 1778023820 | 11.11° C | 34% | 981.4 hPa | 0 mm | - | - | - |
| 1778022906 | 11.11° C | 34% | 981.4 hPa | 0 mm | - | - | - |
| 1778022017 | 11.11° C | 34% | 981.4 hPa | 0 mm | - | - | - |
| 1778021106 | 11.67° C | 33% | 981.4 hPa | 0 mm | - | - | - |
| 1778020221 | 11.67° C | 35% | 981.6 hPa | 0 mm | - | - | - |
| 1778019305 | 11.67° C | 35% | 981.6 hPa | 0 mm | - | - | - |
| 1778018423 | 12.22° C | 35% | 981.6 hPa | 0 mm | - | - | - |
| 1778017505 | 12.22° C | 35% | 981.5 hPa | 0 mm | - | - | - |
| 1778016622 | 11.67° C | 34% | 981 hPa | 0 mm | - | - | - |
| 1778015705 | 12.22° C | 34% | 981 hPa | 0 mm | - | - | - |
| 1778014824 | 12.22° C | 34% | 981 hPa | 0 mm | - | - | - |
| 1778013905 | 12.22° C | 36% | 981.5 hPa | 0 mm | - | - | - |
| 1778013022 | 12.22° C | 35% | 980.7 hPa | 0 mm | - | - | - |
| 1778012105 | 12.22° C | 35% | 980.7 hPa | 0 mm | - | - | - |
* Rain latest hour (hover to see other rain measurements)
** Current wind speed in m/s (hover to see current wind gust speed)